Time,TemperatureF,DewpointF,PressureIn,WindDirection,WindDirectionDegrees,WindSpeedMPH,WindSpeedGustMPH,Humidity,HourlyPrecipIn,Conditions,Clouds,dailyrainin,SoftwareType,DateUTC
2013-08-21 00:03:00,72.7,68.9,29.97,South,180,0.0,0.7,88,0.00,,,0.00,WUHU216HW,2013-08-21 05:03:00,
2013-08-21 00:08:00,72.7,68.9,29.97,NNE,23,0.0,0.0,88,0.00,,,0.00,WUHU216HW,2013-08-21 05:08:00,
2013-08-21 00:13:00,72.7,68.9,29.97,NNE,23,0.0,0.0,88,0.00,,,0.00,WUHU216HW,2013-08-21 05:13:00,
2013-08-21 00:18:00,72.9,69.1,29.97,NNE,23,0.0,0.0,88,0.00,,,0.00,WUHU216HW,2013-08-21 05:18:00,
2013-08-21 00:23:00,72.7,68.9,29.97,NNE,23,0.0,0.0,88,0.00,,,0.00,WUHU216HW,2013-08-21 05:23:00,
2013-08-21 00:29:00,72.7,68.9,29.97,NNE,23,0.0,0.0,88,0.00,,,0.00,WUHU216HW,2013-08-21 05:29:00,
2013-08-21 00:34:00,72.7,68.9,29.97,NNE,23,0.0,0.0,88,0.00,,,0.00,WUHU216HW,2013-08-21 05:34:00,
2013-08-21 00:39:00,72.5,68.8,29.97,ENE,68,0.0,0.7,88,0.00,,,0.00,WUHU216HW,2013-08-21 05:39:00,
2013-08-21 00:44:00,72.9,69.1,29.97,NE,45,0.0,0.7,88,0.00,,,0.00,WUHU216HW,2013-08-21 05:44:00,
2013-08-21 00:49:00,72.9,69.1,29.96,NE,45,0.0,0.7,88,0.00,,,0.00,WUHU216HW,2013-08-21 05:49:00,
2013-08-21 00:54:00,72.9,69.1,29.96,NE,45,0.0,0.7,88,0.00,,,0.00,WUHU216HW,2013-08-21 05:54:00,
2013-08-21 00:59:00,72.7,68.9,29.96,NE,45,0.0,0.4,88,0.00,,,0.00,WUHU216HW,2013-08-21 05:59:00,
2013-08-21 01:04:00,72.4,68.6,29.97,NE,45,0.0,0.4,88,0.00,,,0.00,WUHU216HW,2013-08-21 06:04:00,
2013-08-21 01:09:00,72.4,68.6,29.96,NE,45,0.0,0.0,88,0.00,,,0.00,WUHU216HW,2013-08-21 06:09:00,
2013-08-21 01:14:00,72.7,68.9,29.96,NE,45,0.0,0.0,88,0.00,,,0.00,WUHU216HW,2013-08-21 06:14:00,
2013-08-21 01:19:00,72.5,68.8,29.96,NE,45,0.0,0.0,88,0.00,,,0.00,WUHU216HW,2013-08-21 06:19:00,
2013-08-21 01:24:00,72.4,68.6,29.96,NE,45,0.0,0.0,88,0.00,,,0.00,WUHU216HW,2013-08-21 06:24:00,
2013-08-21 01:30:00,72.4,68.6,29.96,NE,45,0.0,0.2,88,0.00,,,0.00,WUHU216HW,2013-08-21 06:30:00,
2013-08-21 01:35:00,72.2,68.4,29.96,NE,45,0.4,0.4,88,0.00,,,0.00,WUHU216HW,2013-08-21 06:35:00,
2013-08-21 01:40:00,72.2,68.4,29.96,NE,45,0.0,0.4,88,0.00,,,0.00,WUHU216HW,2013-08-21 06:40:00,
2013-08-21 01:45:00,72.0,68.2,29.96,NE,45,0.0,0.0,88,0.00,,,0.00,WUHU216HW,2013-08-21 06:45:00,
2013-08-21 01:50:00,71.8,68.0,29.95,NE,45,0.0,0.4,88,0.00,,,0.00,WUHU216HW,2013-08-21 06:50:00,
2013-08-21 01:55:00,71.8,68.0,29.95,NE,45,0.4,0.9,88,0.00,,,0.00,WUHU216HW,2013-08-21 06:55:00,
2013-08-21 02:00:00,71.8,68.0,29.95,NE,45,0.0,0.9,88,0.00,,,0.00,WUHU216HW,2013-08-21 07:00:00,
2013-08-21 02:05:00,71.8,68.0,29.95,ESE,113,0.0,0.4,88,0.00,,,0.00,WUHU216HW,2013-08-21 07:05:00,
2013-08-21 02:10:00,71.3,67.5,29.95,ESE,113,0.0,0.4,88,0.00,,,0.00,WUHU216HW,2013-08-21 07:10:00,
2013-08-21 02:15:00,70.9,67.5,29.95,ESE,113,0.0,0.0,89,0.00,,,0.00,WUHU216HW,2013-08-21 07:15:00,
2013-08-21 02:20:00,70.9,67.5,29.95,ESE,113,0.0,0.0,89,0.00,,,0.00,WUHU216HW,2013-08-21 07:20:00,
2013-08-21 02:25:00,70.7,67.3,29.95,ESE,113,0.0,0.0,89,0.00,,,0.00,WUHU216HW,2013-08-21 07:25:00,
2013-08-21 02:31:00,70.9,67.9,29.95,ESE,113,0.0,0.0,90,0.00,,,0.00,WUHU216HW,2013-08-21 07:31:00,
2013-08-21 02:36:00,71.3,67.9,29.95,ESE,113,0.0,0.0,89,0.00,,,0.00,WUHU216HW,2013-08-21 07:36:00,
2013-08-21 02:41:00,71.1,67.7,29.95,ESE,113,0.0,0.0,89,0.00,,,0.00,WUHU216HW,2013-08-21 07:41:00,
2013-08-21 02:46:00,70.9,67.1,29.95,ESE,113,0.0,0.0,88,0.00,,,0.00,WUHU216HW,2013-08-21 07:46:00,
2013-08-21 02:51:00,70.7,67.3,29.95,SE,135,0.0,1.1,89,0.00,,,0.00,WUHU216HW,2013-08-21 07:51:00,
2013-08-21 02:56:00,70.6,67.1,29.95,SE,135,0.0,1.1,89,0.00,,,0.00,WUHU216HW,2013-08-21 07:56:00,
2013-08-21 03:01:00,70.2,66.8,29.95,ENE,68,0.4,0.4,89,0.00,,,0.00,WUHU216HW,2013-08-21 08:01:00,
2013-08-21 03:06:00,70.2,66.8,29.95,ENE,68,0.0,0.4,89,0.00,,,0.00,WUHU216HW,2013-08-21 08:06:00,
2013-08-21 03:11:00,70.2,66.8,29.95,ENE,68,0.0,0.4,89,0.00,,,0.00,WUHU216HW,2013-08-21 08:11:00,
2013-08-21 03:16:00,70.2,66.8,29.95,ENE,68,0.2,0.9,89,0.00,,,0.00,WUHU216HW,2013-08-21 08:16:00,
2013-08-21 03:21:00,70.2,66.8,29.96,ENE,68,0.0,0.9,89,0.00,,,0.00,WUHU216HW,2013-08-21 08:21:00,
2013-08-21 03:26:00,70.4,67.0,29.96,ENE,68,0.0,0.2,89,0.00,,,0.00,WUHU216HW,2013-08-21 08:26:00,
2013-08-21 03:31:00,70.6,67.1,29.95,ENE,68,0.0,0.4,89,0.00,,,0.00,WUHU216HW,2013-08-21 08:31:00,
2013-08-21 03:36:00,70.6,67.1,29.95,NE,45,0.2,0.4,89,0.00,,,0.00,WUHU216HW,2013-08-21 08:36:00,
2013-08-21 03:41:00,70.7,67.3,29.95,NE,45,0.4,0.7,89,0.00,,,0.00,WUHU216HW,2013-08-21 08:41:00,
2013-08-21 03:46:00,70.7,67.3,29.95,NE,45,0.9,1.1,89,0.00,,,0.00,WUHU216HW,2013-08-21 08:46:00,
2013-08-21 03:51:00,70.6,67.1,29.95,NE,45,0.0,1.1,89,0.00,,,0.00,WUHU216HW,2013-08-21 08:51:00,
2013-08-21 03:56:00,70.6,67.1,29.95,NE,45,0.0,0.9,89,0.00,,,0.00,WUHU216HW,2013-08-21 08:56:00,
2013-08-21 04:02:00,70.6,67.1,29.95,NE,45,0.0,0.0,89,0.00,,,0.00,WUHU216HW,2013-08-21 09:02:00,
2013-08-21 04:07:00,70.4,67.0,29.95,NE,45,0.0,0.4,89,0.00,,,0.00,WUHU216HW,2013-08-21 09:07:00,
2013-08-21 04:12:00,70.6,67.5,29.95,NE,45,0.0,0.4,90,0.00,,,0.00,WUHU216HW,2013-08-21 09:12:00,
2013-08-21 04:17:00,70.9,67.5,29.95,NE,45,0.4,0.4,89,0.00,,,0.00,WUHU216HW,2013-08-21 09:17:00,
2013-08-21 04:22:00,70.9,67.5,29.95,NE,45,0.0,0.4,89,0.00,,,0.00,WUHU216HW,2013-08-21 09:22:00,
2013-08-21 04:27:00,70.7,67.3,29.95,ESE,113,0.0,1.1,89,0.00,,,0.00,WUHU216HW,2013-08-21 09:27:00,
2013-08-21 04:32:00,70.4,67.0,29.96,ESE,113,0.0,1.1,89,0.00,,,0.00,WUHU216HW,2013-08-21 09:32:00,
2013-08-21 04:37:00,70.2,66.8,29.96,ESE,113,0.0,0.0,89,0.00,,,0.00,WUHU216HW,2013-08-21 09:37:00,
2013-08-21 04:42:00,70.2,66.8,29.96,NE,45,0.0,0.0,89,0.00,,,0.00,WUHU216HW,2013-08-21 09:42:00,
2013-08-21 04:47:00,70.4,67.0,29.96,NE,45,0.0,0.0,89,0.00,,,0.00,WUHU216HW,2013-08-21 09:47:00,
2013-08-21 04:52:00,70.2,66.8,29.96,NNE,23,0.0,0.2,89,0.00,,,0.00,WUHU216HW,2013-08-21 09:52:00,
2013-08-21 04:57:00,70.0,66.6,29.96,NNE,23,0.0,0.2,89,0.00,,,0.00,WUHU216HW,2013-08-21 09:57:00,
2013-08-21 05:02:00,69.7,66.2,29.96,NNE,23,0.0,0.0,89,0.00,,,0.00,WUHU216HW,2013-08-21 10:02:00,
2013-08-21 05:07:00,69.5,66.1,29.96,SE,135,0.9,0.9,89,0.00,,,0.00,WUHU216HW,2013-08-21 10:07:00,
2013-08-21 05:12:00,69.5,66.4,29.96,SE,135,0.0,0.9,90,0.00,,,0.00,WUHU216HW,2013-08-21 10:12:00,
2013-08-21 05:17:00,69.7,66.6,29.96,ESE,113,0.0,0.9,90,0.00,,,0.00,WUHU216HW,2013-08-21 10:17:00,
2013-08-21 05:22:00,70.2,67.1,29.96,NE,45,0.4,0.4,90,0.00,,,0.00,WUHU216HW,2013-08-21 10:22:00,
2013-08-21 05:28:00,70.2,67.1,29.96,NE,45,0.0,0.7,90,0.00,,,0.00,WUHU216HW,2013-08-21 10:28:00,
2013-08-21 05:33:00,70.0,66.6,29.96,NE,45,0.0,0.7,89,0.00,,,0.00,WUHU216HW,2013-08-21 10:33:00,
2013-08-21 05:38:00,69.8,66.4,29.96,NE,45,0.0,0.7,89,0.00,,,0.00,WUHU216HW,2013-08-21 10:38:00,
2013-08-21 05:43:00,69.7,66.2,29.97,NE,45,0.0,0.7,89,0.00,,,0.00,WUHU216HW,2013-08-21 10:43:00,
2013-08-21 05:48:00,69.7,66.2,29.97,NE,45,0.0,0.0,89,0.00,,,0.00,WUHU216HW,2013-08-21 10:48:00,
2013-08-21 05:53:00,69.8,66.4,29.97,NE,45,0.0,0.0,89,0.00,,,0.00,WUHU216HW,2013-08-21 10:53:00,
2013-08-21 05:58:00,69.8,66.4,29.97,NNE,23,0.4,0.7,89,0.00,,,0.00,WUHU216HW,2013-08-21 10:58:00,
2013-08-21 06:03:00,69.8,66.4,29.98,NNE,23,0.0,0.9,89,0.00,,,0.00,WUHU216HW,2013-08-21 11:03:00,
2013-08-21 06:12:00,69.5,66.1,29.98,NNE,23,0.0,0.2,89,0.00,,,0.00,WUHU216HW,2013-08-21 11:12:00,
2013-08-21 06:17:00,69.5,66.1,29.99,NNE,23,0.0,0.4,89,0.00,,,0.00,WUHU216HW,2013-08-21 11:17:00,
2013-08-21 06:22:00,69.7,66.6,29.98,NNE,23,0.2,0.4,90,0.01,,,0.01,WUHU216HW,2013-08-21 11:22:00,
2013-08-21 06:27:00,69.7,66.6,29.99,NNE,23,0.7,0.9,90,0.01,,,0.01,WUHU216HW,2013-08-21 11:27:00,
2013-08-21 07:02:00,70.4,67.3,29.99,North,0,0.9,0.9,90,0.01,,,0.01,WUHU216HW,2013-08-21 12:02:00,
2013-08-21 07:07:00,70.6,67.5,30.00,North,0,0.2,1.1,90,0.01,,,0.01,WUHU216HW,2013-08-21 12:07:00,
2013-08-21 07:12:00,70.7,67.7,30.00,North,0,0.0,1.1,90,0.01,,,0.01,WUHU216HW,2013-08-21 12:12:00,
2013-08-21 07:18:00,70.7,67.7,30.00,NNE,23,0.4,1.1,90,0.01,,,0.01,WUHU216HW,2013-08-21 12:18:00,
2013-08-21 07:23:00,70.9,67.9,30.00,NNE,23,0.4,1.6,90,0.00,,,0.01,WUHU216HW,2013-08-21 12:23:00,
2013-08-21 07:28:00,71.1,68.0,30.00,NNE,23,0.0,1.6,90,0.00,,,0.01,WUHU216HW,2013-08-21 12:28:00,
2013-08-21 08:15:00,73.6,70.8,30.01,NNE,23,1.1,1.6,91,0.00,,,0.01,WUHU216HW,2013-08-21 13:15:00,
2013-08-21 09:11:00,78.8,73.6,30.01,ESE,113,0.2,0.2,84,0.00,,,0.01,WUHU216HW,2013-08-21 14:11:00,
2013-08-21 09:19:00,79.0,73.5,30.01,SE,135,0.4,0.4,83,0.00,,,0.01,WUHU216HW,2013-08-21 14:19:00,
2013-08-21 09:24:00,79.6,74.0,30.01,SSW,203,1.8,1.8,83,0.00,,,0.01,WUHU216HW,2013-08-21 14:24:00,
2013-08-21 09:29:00,80.3,74.0,30.02,SE,135,1.1,4.7,81,0.00,,,0.01,WUHU216HW,2013-08-21 14:29:00,
2013-08-21 09:34:00,80.3,73.6,30.02,SW,225,0.4,4.7,80,0.00,,,0.01,WUHU216HW,2013-08-21 14:34:00,
2013-08-21 09:39:00,80.6,74.0,30.02,West,270,1.1,3.4,80,0.00,,,0.01,WUHU216HW,2013-08-21 14:39:00,
2013-08-21 09:44:00,81.0,74.0,30.02,South,180,1.8,2.9,79,0.00,,,0.01,WUHU216HW,2013-08-21 14:44:00,
2013-08-21 09:49:00,81.2,74.2,30.02,South,180,1.3,2.5,79,0.00,,,0.01,WUHU216HW,2013-08-21 14:49:00,
2013-08-21 09:54:00,81.2,73.4,30.01,NW,315,2.7,4.0,77,0.00,,,0.01,WUHU216HW,2013-08-21 14:54:00,
2013-08-21 09:59:00,81.2,73.7,30.01,WSW,248,1.1,4.0,78,0.00,,,0.01,WUHU216HW,2013-08-21 14:59:00,
2013-08-21 10:04:00,81.0,73.5,30.01,West,270,1.6,4.0,78,0.00,,,0.01,WUHU216HW,2013-08-21 15:04:00,
2013-08-21 10:09:00,81.5,74.4,30.01,WSW,248,2.5,3.4,79,0.00,,,0.01,WUHU216HW,2013-08-21 15:09:00,
2013-08-21 10:14:00,82.8,75.2,30.01,SSW,203,1.3,3.4,78,0.00,,,0.01,WUHU216HW,2013-08-21 15:14:00,
2013-08-21 10:19:00,83.2,74.8,30.01,NW,315,1.8,3.4,76,0.00,,,0.01,WUHU216HW,2013-08-21 15:19:00,
2013-08-21 10:24:00,83.5,75.2,30.01,NW,315,1.1,4.0,76,0.00,,,0.01,WUHU216HW,2013-08-21 15:24:00,
2013-08-21 10:29:00,84.2,75.8,30.01,SW,225,3.1,4.0,76,0.00,,,0.01,WUHU216HW,2013-08-21 15:29:00,
2013-08-21 10:35:00,84.6,75.8,30.01,WNW,293,2.2,5.6,75,0.00,,,0.01,WUHU216HW,2013-08-21 15:35:00,
2013-08-21 10:40:00,84.4,74.8,30.01,SW,225,3.6,5.6,73,0.00,,,0.01,WUHU216HW,2013-08-21 15:40:00,
2013-08-21 10:45:00,84.2,74.6,30.01,WSW,248,1.1,4.9,73,0.00,,,0.01,WUHU216HW,2013-08-21 15:45:00,
2013-08-21 10:50:00,84.6,75.4,30.01,WSW,248,2.2,4.0,74,0.00,,,0.01,WUHU216HW,2013-08-21 15:50:00,
2013-08-21 10:55:00,85.0,75.3,30.01,South,180,0.9,4.0,73,0.00,,,0.01,WUHU216HW,2013-08-21 15:55:00,
2013-08-21 11:00:00,85.5,75.5,30.01,WSW,248,3.4,3.4,72,0.00,,,0.01,WUHU216HW,2013-08-21 16:00:00,
2013-08-21 11:05:00,85.9,75.4,30.00,WSW,248,2.0,3.8,71,0.00,,,0.01,WUHU216HW,2013-08-21 16:05:00,
2013-08-21 11:10:00,86.4,76.0,30.00,South,180,2.9,3.8,71,0.00,,,0.01,WUHU216HW,2013-08-21 16:10:00,
2013-08-21 11:15:00,87.1,75.8,30.00,South,180,4.7,4.9,69,0.00,,,0.01,WUHU216HW,2013-08-21 16:15:00,
2013-08-21 11:20:00,87.7,75.3,30.00,ESE,113,0.4,4.9,67,0.00,,,0.01,WUHU216HW,2013-08-21 16:20:00,
2013-08-21 11:25:00,87.5,75.2,29.99,North,0,1.6,3.8,67,0.00,,,0.01,WUHU216HW,2013-08-21 16:25:00,
2013-08-21 11:30:00,86.8,74.5,30.00,SSW,203,1.1,3.6,67,0.00,,,0.01,WUHU216HW,2013-08-21 16:30:00,
2013-08-21 11:35:00,87.5,75.2,29.99,South,180,1.8,3.4,67,0.00,,,0.01,WUHU216HW,2013-08-21 16:35:00,
2013-08-21 11:40:00,88.0,75.3,29.99,North,0,1.6,3.4,66,0.00,,,0.01,WUHU216HW,2013-08-21 16:40:00,
2013-08-21 11:45:00,88.7,76.0,29.99,SSE,158,1.1,3.4,66,0.00,,,0.01,WUHU216HW,2013-08-21 16:45:00,
2013-08-21 11:50:00,88.2,75.4,29.99,North,0,1.8,2.9,66,0.00,,,0.01,WUHU216HW,2013-08-21 16:50:00,
2013-08-21 11:55:00,87.8,75.1,29.98,NNE,23,1.1,3.1,66,0.00,,,0.01,WUHU216HW,2013-08-21 16:55:00,
2013-08-21 12:00:00,86.9,74.3,29.99,NE,45,0.4,3.1,66,0.00,,,0.01,WUHU216HW,2013-08-21 17:00:00,
2013-08-21 12:06:00,86.0,73.8,29.99,NNW,338,1.6,2.5,67,0.00,,,0.01,WUHU216HW,2013-08-21 17:06:00,
2013-08-21 12:11:00,85.9,73.6,29.99,WSW,248,1.1,1.8,67,0.00,,,0.01,WUHU216HW,2013-08-21 17:11:00,
2013-08-21 12:16:00,86.4,74.2,29.98,WNW,293,1.1,2.5,67,0.00,,,0.01,WUHU216HW,2013-08-21 17:16:00,
2013-08-21 12:21:00,87.8,74.6,29.98,SSW,203,3.4,3.4,65,0.00,,,0.01,WUHU216HW,2013-08-21 17:21:00,
2013-08-21 12:26:00,88.4,74.3,29.98,South,180,2.2,3.4,63,0.00,,,0.01,WUHU216HW,2013-08-21 17:26:00,
2013-08-21 12:34:00,88.6,73.9,29.99,West,270,1.3,2.5,62,0.00,,,0.01,WUHU216HW,2013-08-21 17:34:00,
2013-08-21 12:39:00,88.9,73.8,29.98,ENE,68,0.0,1.3,61,0.00,,,0.01,WUHU216HW,2013-08-21 17:39:00,
2013-08-21 12:44:00,88.9,74.3,29.98,SE,135,1.8,2.9,62,0.00,,,0.01,WUHU216HW,2013-08-21 17:44:00,
2013-08-21 12:49:00,88.9,73.8,29.98,South,180,1.1,2.9,61,0.00,,,0.01,WUHU216HW,2013-08-21 17:49:00,
2013-08-21 12:54:00,89.5,73.8,29.98,West,270,2.5,2.9,60,0.00,,,0.01,WUHU216HW,2013-08-21 17:54:00,
2013-08-21 12:59:00,90.2,74.4,29.98,NNE,23,1.6,3.8,60,0.00,,,0.01,WUHU216HW,2013-08-21 17:59:00,
2013-08-21 13:04:00,90.0,74.4,29.98,NNE,23,0.0,3.8,60,0.00,,,0.01,WUHU216HW,2013-08-21 18:04:00,
2013-08-21 13:09:00,90.4,75.1,29.98,North,0,2.0,2.5,61,0.00,,,0.01,WUHU216HW,2013-08-21 18:09:00,
2013-08-21 13:14:00,90.2,74.4,29.98,SW,225,0.4,2.5,60,0.00,,,0.01,WUHU216HW,2013-08-21 18:14:00,
2013-08-21 13:19:00,90.0,74.4,29.98,SE,135,0.0,1.8,60,0.00,,,0.01,WUHU216HW,2013-08-21 18:19:00,
2013-08-21 14:14:00,92.9,74.3,29.96,SE,135,2.0,2.0,55,0.00,,,0.01,WUHU216HW,2013-08-21 19:14:00,
2013-08-21 14:19:00,92.3,73.2,29.97,North,0,1.6,3.6,54,0.00,,,0.01,WUHU216HW,2013-08-21 19:19:00,
2013-08-21 14:24:00,91.1,72.5,29.97,SE,135,1.1,3.6,55,0.00,,,0.01,WUHU216HW,2013-08-21 19:24:00,
2013-08-21 14:29:00,89.1,73.0,29.97,South,180,3.4,7.4,59,0.00,,,0.01,WUHU216HW,2013-08-21 19:29:00,
2013-08-21 14:34:00,87.5,72.5,29.98,SSW,203,4.5,7.4,61,0.00,,,0.01,WUHU216HW,2013-08-21 19:34:00,
2013-08-21 14:39:00,85.7,72.1,29.97,SE,135,1.1,6.9,64,0.00,,,0.01,WUHU216HW,2013-08-21 19:39:00,
2013-08-21 14:44:00,85.3,72.7,29.97,SW,225,3.8,6.9,66,0.00,,,0.01,WUHU216HW,2013-08-21 19:44:00,
2013-08-21 14:49:00,86.0,72.5,29.97,SE,135,1.6,10.3,64,0.00,,,0.01,WUHU216HW,2013-08-21 19:49:00,
2013-08-21 14:54:00,86.0,72.0,29.96,SSE,158,7.2,10.3,63,0.00,,,0.01,WUHU216HW,2013-08-21 19:54:00,
2013-08-21 14:59:00,85.9,71.8,29.96,ENE,68,2.7,7.2,63,0.00,,,0.01,WUHU216HW,2013-08-21 19:59:00,
2013-08-21 15:04:00,86.0,72.0,29.96,ESE,113,1.8,7.2,63,0.00,,,0.01,WUHU216HW,2013-08-21 20:04:00,
2013-08-21 15:09:00,86.4,71.8,29.95,SSE,158,2.0,6.3,62,0.00,,,0.01,WUHU216HW,2013-08-21 20:09:00,
2013-08-21 15:14:00,86.4,71.8,29.95,South,180,2.5,5.6,62,0.00,,,0.01,WUHU216HW,2013-08-21 20:14:00,
2013-08-21 15:19:00,86.2,72.2,29.95,SW,225,2.2,5.8,63,0.00,,,0.01,WUHU216HW,2013-08-21 20:19:00,
2013-08-21 15:24:00,86.8,72.6,29.94,SSW,203,1.3,5.8,63,0.00,,,0.01,WUHU216HW,2013-08-21 20:24:00,
2013-08-21 15:29:00,87.5,73.4,29.95,WSW,248,2.5,5.4,63,0.00,,,0.01,WUHU216HW,2013-08-21 20:29:00,
2013-08-21 15:34:00,88.2,73.6,29.94,SSW,203,1.1,4.0,62,0.00,,,0.01,WUHU216HW,2013-08-21 20:34:00,
2013-08-21 15:40:00,88.9,73.8,29.94,North,0,0.0,4.0,61,0.00,,,0.01,WUHU216HW,2013-08-21 20:40:00,
2013-08-21 15:45:00,89.5,74.3,29.94,North,0,0.0,1.1,61,0.00,,,0.01,WUHU216HW,2013-08-21 20:45:00,
2013-08-21 17:09:00,89.1,74.9,29.93,NW,315,0.7,1.1,63,0.00,,,0.01,WUHU216HW,2013-08-21 22:09:00,
2013-08-21 17:14:00,89.6,74.9,29.93,West,270,2.0,3.6,62,0.00,,,0.01,WUHU216HW,2013-08-21 22:14:00,
2013-08-21 17:19:00,89.8,75.1,29.93,WNW,293,2.5,3.6,62,0.00,,,0.01,WUHU216HW,2013-08-21 22:19:00,
2013-08-21 18:02:00,88.6,73.0,29.92,South,180,0.7,1.1,60,0.00,,,0.01,WUHU216HW,2013-08-21 23:02:00,
2013-08-21 18:07:00,88.2,73.6,29.92,SSE,158,1.8,2.5,62,0.00,,,0.01,WUHU216HW,2013-08-21 23:07:00,
2013-08-21 19:57:00,78.1,71.8,29.94,NNE,23,0.0,0.0,81,0.00,,,0.01,WUHU216HW,2013-08-22 00:57:00,
2013-08-21 20:02:00,77.4,71.1,29.94,NNE,23,0.0,0.0,81,0.00,,,0.01,WUHU216HW,2013-08-22 01:02:00,
2013-08-21 20:07:00,76.9,70.9,29.94,NNE,23,0.0,0.0,82,0.00,,,0.01,WUHU216HW,2013-08-22 01:07:00,
2013-08-21 20:12:00,76.7,70.7,29.94,NNE,23,0.0,0.0,82,0.00,,,0.01,WUHU216HW,2013-08-22 01:12:00,
2013-08-21 20:17:00,76.7,70.7,29.94,NNE,23,0.0,0.0,82,0.00,,,0.01,WUHU216HW,2013-08-22 01:17:00,
2013-08-21 20:22:00,76.7,71.1,29.94,NNE,23,0.0,0.0,83,0.00,,,0.01,WUHU216HW,2013-08-22 01:22:00,
2013-08-21 20:27:00,76.9,70.9,29.95,NNE,23,0.0,0.7,82,0.00,,,0.01,WUHU216HW,2013-08-22 01:27:00,
2013-08-21 20:32:00,77.0,71.1,29.95,North,0,0.4,1.1,82,0.00,,,0.01,WUHU216HW,2013-08-22 01:32:00,
2013-08-21 20:37:00,76.9,70.6,29.95,North,0,0.0,1.1,81,0.00,,,0.01,WUHU216HW,2013-08-22 01:37:00,
2013-08-21 20:42:00,76.7,70.7,29.95,North,0,0.0,0.7,82,0.00,,,0.01,WUHU216HW,2013-08-22 01:42:00,
2013-08-21 20:48:00,76.7,70.7,29.96,NNE,23,0.2,0.7,82,0.00,,,0.01,WUHU216HW,2013-08-22 01:48:00,
2013-08-21 20:53:00,76.3,70.8,29.96,NE,45,0.0,0.4,83,0.00,,,0.01,WUHU216HW,2013-08-22 01:53:00,
2013-08-21 20:58:00,76.1,70.7,29.96,SE,135,0.0,0.7,83,0.00,,,0.01,WUHU216HW,2013-08-22 01:58:00,
2013-08-21 21:03:00,76.0,70.5,29.96,SE,135,0.0,0.7,83,0.00,,,0.01,WUHU216HW,2013-08-22 02:03:00,
2013-08-21 21:08:00,75.8,70.3,29.96,SE,135,0.0,0.4,83,0.00,,,0.01,WUHU216HW,2013-08-22 02:08:00,
2013-08-21 21:13:00,75.6,70.1,29.96,SE,135,0.0,0.4,83,0.00,,,0.01,WUHU216HW,2013-08-22 02:13:00,
2013-08-21 21:18:00,75.4,69.9,29.96,East,90,0.0,0.4,83,0.00,,,0.01,WUHU216HW,2013-08-22 02:18:00,
2013-08-21 21:23:00,75.1,70.3,29.96,SE,135,0.0,1.1,85,0.00,,,0.01,WUHU216HW,2013-08-22 02:23:00,
2013-08-21 21:28:00,74.7,69.9,29.96,NNE,23,1.1,1.1,85,0.00,,,0.01,WUHU216HW,2013-08-22 02:28:00,
2013-08-21 21:33:00,74.5,69.8,29.96,NNE,23,0.0,1.1,85,0.00,,,0.01,WUHU216HW,2013-08-22 02:33:00,
2013-08-21 21:38:00,74.7,69.9,29.96,ENE,68,0.0,1.1,85,0.00,,,0.01,WUHU216HW,2013-08-22 02:38:00,
2013-08-21 21:43:00,75.1,70.3,29.96,ENE,68,0.0,0.2,85,0.00,,,0.01,WUHU216HW,2013-08-22 02:43:00,
2013-08-21 21:49:00,74.9,70.1,29.96,ENE,68,0.0,0.0,85,0.00,,,0.01,WUHU216HW,2013-08-22 02:49:00,
2013-08-21 21:54:00,74.5,69.8,29.96,ESE,113,0.0,0.2,85,0.00,,,0.01,WUHU216HW,2013-08-22 02:54:00,
2013-08-21 21:59:00,74.5,69.8,29.96,ESE,113,0.0,0.2,85,0.00,,,0.01,WUHU216HW,2013-08-22 02:59:00,
2013-08-21 22:04:00,74.3,69.9,29.96,ESE,113,0.0,0.0,86,0.00,,,0.01,WUHU216HW,2013-08-22 03:04:00,
2013-08-21 22:09:00,74.2,69.8,29.96,ESE,113,0.0,0.0,86,0.00,,,0.01,WUHU216HW,2013-08-22 03:09:00,
2013-08-21 22:14:00,74.0,69.6,29.96,ESE,113,0.0,0.0,86,0.00,,,0.01,WUHU216HW,2013-08-22 03:14:00,
2013-08-21 22:19:00,73.8,69.8,29.96,ESE,113,0.0,0.0,87,0.00,,,0.01,WUHU216HW,2013-08-22 03:19:00,
2013-08-21 22:24:00,73.6,69.6,29.96,ESE,113,0.0,0.0,87,0.00,,,0.01,WUHU216HW,2013-08-22 03:24:00,
2013-08-21 22:29:00,73.3,69.2,29.96,ESE,113,0.0,0.0,87,0.00,,,0.01,WUHU216HW,2013-08-22 03:29:00,
2013-08-21 22:34:00,73.3,69.5,29.96,ESE,113,0.0,0.0,88,0.00,,,0.01,WUHU216HW,2013-08-22 03:34:00,
2013-08-21 22:40:00,73.4,69.7,29.96,NNE,23,0.0,0.2,88,0.00,,,0.01,WUHU216HW,2013-08-22 03:40:00,
2013-08-21 22:45:00,73.4,69.4,29.96,NNE,23,0.4,0.7,87,0.00,,,0.01,WUHU216HW,2013-08-22 03:45:00,
2013-08-21 22:50:00,73.4,69.4,29.96,NNE,23,0.0,0.7,87,0.00,,,0.01,WUHU216HW,2013-08-22 03:50:00,
2013-08-21 22:55:00,73.3,69.2,29.97,NNE,23,0.4,0.7,87,0.00,,,0.01,WUHU216HW,2013-08-22 03:55:00,
2013-08-21 23:00:00,73.3,69.2,29.97,SE,135,0.0,1.1,87,0.00,,,0.01,WUHU216HW,2013-08-22 04:00:00,
2013-08-21 23:01:00,73.3,69.2,29.97,SE,135,0.0,1.1,87,0.00,,,0.01,WUHU216HW,2013-08-22 04:01:00,
2013-08-21 23:02:00,73.1,69.0,29.97,SE,135,0.0,1.1,87,0.00,,,0.01,WUHU216HW,2013-08-22 04:02:00,
2013-08-21 23:05:00,73.1,69.0,29.97,SE,135,0.0,0.4,87,0.00,,,0.01,WUHU216HW,2013-08-22 04:05:00,